Burlington, NC

6:01 PM EDT on August 20, 2017 (GMT -0400)
Burlington-Alamance Regional

Weather History for KBUY - October, 2012

Change the Weather History Date:

Wednesday, October 3, 2012

  Actual Average Record
Temperature  
Mean Temperature 76 °F -  
Max Temperature 82 °F 76 °F 92 °F (1954)
Min Temperature 69 °F 51 °F 34 °F (2003)
Cooling Degree Days 10    
Growing Degree Days 26 (Base 50)    
Moisture  
Dew Point 69 °F    
Average Humidity 87    
Maximum Humidity 100    
Minimum Humidity 56    
Precipitation  
Precipitation 0.00 in - - ()
Sea Level Pressure  
Sea Level Pressure 30.05 in    
Wind  
Wind Speed 2 mph (SW)    
Max Wind Speed 6 mph    
Max Gust Speed -    
Visibility 7 miles    
Events Fog , Rain    
Averages and records for this station are not official NWS values.
T = Trace of Precipitation, MM = Missing Value Source: NWS Daily Summary

Daily Weather History Graph

Daily Weather History Graph

Search for Another Location

Airport or City:

Trip Planner

Search our weather history database for the weather conditions in past years. The results will help you decide how hot, cold, wet, or windy it might be!

Date:

Astronomy

Oct. 03, 2012 Rise Set
Actual Time 7:14 AM EDT 6:57 PM EDT
Civil Twilight 6:49 AM EDT 7:23 PM EDT
Nautical Twilight 6:19 AM EDT 7:53 PM EDT
Astronomical Twilight 5:49 AM EDT 8:22 PM EDT
Moon 8:56 PM EDT (10/3) 10:29 AM EDT (10/3)
Length of Visible Light 12h 34m
Length of Day
11h 42m
Waning Gibbous, 89% of the Moon is Illuminated
Oct 3
Waning Gibbous
Oct 8
Last Quarter
Oct 15
New
Oct 21
First Quarter
Oct 29
Full

Hourly Weather History & Observations

Time (EDT) Temp. Heat Index Dew Point Humidity Pressure Visibility Wind Dir Wind Speed Gust Speed Precip Events Conditions
12:18 AM 73.4 °F - 71.6 °F 94% 29.97 in 10.0 mi SSW 3.5 mph - N/A   Overcast
12:43 AM 73.4 °F - 71.6 °F 94% 29.98 in 10.0 mi SSW 4.6 mph - N/A   Overcast
12:54 AM 73.9 °F - 72.0 °F 93% 29.97 in 10.0 mi SSW 3.5 mph - N/A   Overcast
1:25 AM 73.4 °F - 71.6 °F 94% 29.99 in 10.0 mi South 3.5 mph - N/A   Overcast
1:54 AM 73.9 °F - 72.0 °F 93% 29.97 in 10.0 mi South 3.5 mph - N/A   Mostly Cloudy
2:14 AM 73.4 °F - 71.6 °F 94% 30.00 in 10.0 mi South 3.5 mph - N/A   Overcast
2:54 AM 73.9 °F - 72.0 °F 93% 29.99 in 10.0 mi Calm Calm - N/A   Overcast
3:54 AM 73.0 °F - 71.1 °F 93% 29.99 in 9.0 mi Calm Calm - N/A   Mostly Cloudy
4:20 AM 71.6 °F - 71.6 °F 100% 30.01 in 6.0 mi Calm Calm - N/A   Scattered Clouds
4:46 AM 71.6 °F - 71.6 °F 100% 30.02 in 6.0 mi Calm Calm - N/A   Mostly Cloudy
4:54 AM 72.0 °F - 71.1 °F 97% 30.00 in 6.0 mi Calm Calm - N/A   Overcast
5:54 AM 72.0 °F - 71.1 °F 97% 30.02 in 6.0 mi Calm Calm - 0.00 in Rain Light Rain
6:02 AM 71.6 °F - 69.8 °F 94% 30.04 in 6.0 mi Calm Calm - 0.00 in Rain Light Rain
6:25 AM 71.6 °F - 71.6 °F 100% 30.05 in 1.5 mi Calm Calm - 0.00 in   Partly Cloudy
6:34 AM 71.6 °F - 69.8 °F 94% 30.05 in 0.8 mi Calm Calm - 0.00 in   Partly Cloudy
6:43 AM 71.6 °F - 69.8 °F 94% 30.05 in 0.5 mi Calm Calm - 0.00 in Fog Fog
6:54 AM 71.1 °F - 71.1 °F 100% 30.04 in 1.0 mi Calm Calm - 0.00 in   Mist
6:58 AM 71.6 °F - 71.6 °F 100% 30.05 in 2.0 mi Calm Calm - N/A   Partly Cloudy
7:05 AM 71.6 °F - 69.8 °F 94% 30.05 in 4.0 mi Calm Calm - N/A   Partly Cloudy
7:11 AM 71.6 °F - 69.8 °F 94% 30.05 in 1.8 mi Calm Calm - N/A   Clear
7:20 AM 69.8 °F - 69.8 °F 100% 30.06 in 0.5 mi Calm Calm - N/A Fog Fog
7:35 AM 69.8 °F - 69.8 °F 100% 30.06 in 0.5 mi Calm Calm - N/A Fog Fog
7:47 AM 71.6 °F - 69.8 °F 94% 30.07 in 0.2 mi Calm Calm - N/A Fog Fog
7:54 AM 71.1 °F - 70.0 °F 96% 30.06 in 1.2 mi Calm Calm - N/A   Partly Cloudy
7:57 AM 71.6 °F - 69.8 °F 94% 30.07 in 3.0 mi Calm Calm - N/A   Clear
8:54 AM 73.0 °F - 71.1 °F 93% 30.07 in 5.0 mi Calm Calm - N/A   Clear
9:54 AM 73.9 °F - 72.0 °F 93% 30.09 in 8.0 mi Calm Calm - N/A   Clear
10:54 AM 77.0 °F - 66.0 °F 69% 30.09 in 10.0 mi Calm Calm - N/A   Clear
11:54 AM 79.0 °F - 66.9 °F 66% 30.11 in 10.0 mi SW 3.5 mph - N/A   Scattered Clouds
12:54 PM 80.1 °F 82.1 °F 66.0 °F 62% 30.09 in 10.0 mi WSW 4.6 mph - N/A   Clear
1:54 PM 82.0 °F 84.5 °F 66.9 °F 60% 30.08 in 10.0 mi Variable 5.8 mph - N/A   Clear
2:54 PM 82.0 °F 83.8 °F 64.9 °F 56% 30.06 in 10.0 mi WSW 5.8 mph - N/A   Clear
3:54 PM 81.0 °F 82.7 °F 64.9 °F 58% 30.06 in 10.0 mi SW 3.5 mph - N/A   Clear
4:54 PM 81.0 °F 82.7 °F 64.9 °F 58% 30.08 in 10.0 mi SW 4.6 mph - N/A   Clear
6:54 PM 75.9 °F - 68.0 °F 76% 30.10 in 10.0 mi Calm Calm - N/A   Clear
7:54 PM 75.0 °F - 68.0 °F 79% 30.11 in 10.0 mi Calm Calm - N/A   Clear
8:54 PM 73.9 °F - 69.1 °F 85% 30.13 in 10.0 mi Calm Calm - 0.00 in Rain Light Rain
9:54 PM 72.0 °F - 68.0 °F 87% 30.14 in 10.0 mi SW 3.5 mph - 0.00 in   Clear
10:54 PM 73.0 °F - 66.0 °F 79% 30.16 in 10.0 mi SW 4.6 mph - N/A   Clear
11:54 PM 71.1 °F - 64.9 °F 81% 30.17 in 10.0 mi SW 4.6 mph - N/A   Partly Cloudy